Location: Pinon Hills
(34.4429°N, 117.6403°W)
Time: 09:52:53
(UTC-07:00)

Daily predictions for brighter satellites

Satellite Brightness Start Highest point End
(mag) Time Altitude Azimuth Time Altitude Azimuth Time Altitude Azimuth
Cosmos 1844 Rocket 3.2 20:13:43 10° NNW 20:19:19 62° WSW 20:24:50 10° S
Cosmos 1975 3.2 20:17:22 10° NNW 20:21:21 69° W 20:25:18 10° S
Cosmos 1844 3.9 20:15:54 10° NNW 20:21:41 82° WSW 20:27:28 10° SSE
ERS-1 Rocket 3.9 20:18:14 10° SE 20:22:37 32° ENE 20:27:02 10° N
OAO 3 Copernicus 4.4 20:18:05 10° W 20:23:10 83° N 20:28:13 10° E
Cosmos 1606 Rocket 4.2 20:20:55 10° N 20:25:05 39° E 20:29:11 10° SSE
FENGYUN 3A 3.8 20:21:03 10° SSE 20:26:19 62° ENE 20:31:38 10° N
Hubble Space Telescope 3.0 20:25:28 10° SW 20:27:47 15° SSW 20:30:06 10° SSE
H-2A R/B 3.2 20:26:00 10° SE 20:29:33 27° ENE 20:33:10 10° NNE
ATLAS CENTAUR R/B 3.0 20:31:35 10° SW 20:36:20 48° WNW 20:41:14 10° NNE
Resurs 01 Rocket 4.3 20:38:15 10° SW 20:41:28 20° W 20:44:43 10° NW
Cosmos 2237 Rocket 3.7 20:40:05 10° SW 20:45:19 40° WNW 20:50:37 10° N
GEOS 3 Rocket 3.7 20:44:13 10° SSE 20:49:29 82° WSW 20:54:45 10° NW
PSLV R/B 3.4 20:47:13 10° SW 20:50:41 59° SSE 20:54:11 10° ENE
USA 186 2.4 20:48:08 10° S 20:51:03 48° W 20:53:48 10° NNW
Atlas Centaur 2 3.3 20:44:58 10° SW 20:51:54 42° SSE 20:59:44 10° E
Aureole 2 Rocket 2.9 20:49:19 10° S 20:53:16 48° ESE 20:56:55 10° NNE
CZ-2D R/B 4.4 20:49:44 10° S 20:53:28 44° W 20:57:12 10° NNW
Cosmos 1025 Rocket 3.8 20:49:49 10° SSW 20:54:07 56° W 20:58:26 10° N
ISS -1.0 20:52:21 10° S 20:52:25 10° S 20:52:25 10° S
Cosmos 2228 3.8 20:51:36 10° NNE 20:55:40 35° E 20:58:26 17° SE
CZ-4 DEB 3.9 20:52:51 10° S 20:55:56 44° W 20:59:03 10° NNW
Cosmos 2278 Rocket 2.7 20:51:00 10° NNW 20:56:36 60° WSW 21:02:09 10° S
Cosmos 1939 Rocket 3.5 20:54:30 16° SE 20:57:25 40° ENE 21:01:18 10° N
Cosmos 494 Rocket 3.9 20:52:27 10° SSW 20:57:33 88° ESE 21:02:41 10° NNE
Cosmos 1892 Rocket 3.7 20:54:12 10° S 20:58:36 76° W 21:03:05 10° N
COSMOS 2455 3.6 20:58:13 10° SSE 21:03:22 31° ESE 21:08:32 10° NE
Milstar 3 Cent rocket 3.2 20:57:42 10° W 21:05:03 38° SSW 21:08:18 19° SE
Cosmos 1666 3.1 21:04:09 10° N 21:07:54 44° E 21:09:51 24° SE
CZ-4 SHROUD 4.2 21:07:20 25° ESE 21:08:18 31° ENE 21:11:08 10° N
SPOT 5 3.4 21:06:11 21° SE 21:08:35 36° ENE 21:12:34 10° N
Lacrosse 5 rocket 4.1 21:07:07 10° W 21:10:04 21° NW 21:13:08 10° N
Cosmos 2369 Rocket 4.4 21:09:03 10° NE 21:10:14 11° NE 21:11:24 10° ENE
OTV 4 2.5 21:08:38 10° WSW 21:10:38 17° SSW 21:11:32 15° S
SL-16 R/B 2.9 21:06:49 10° SW 21:12:21 56° WNW 21:17:54 10° NNE
Nimbus 7 Rocket 4.3 21:11:30 10° NNE 21:17:30 83° ESE 21:23:23 10° SSW
Gbstr 26 Del rocket 4.5 21:10:07 10° NW 21:17:36 90° NW 21:23:16 22° SE
Cosmos 1743 3.9 21:15:58 10° NNW 21:19:35 41° W 21:23:11 10° SSW
Cosmos 1331 Rocket 4.1 21:18:33 10° NNW 21:23:44 73° WSW 21:27:27 19° S
Tsikada Rocket 4.1 21:18:41 12° S 21:24:29 62° E 21:30:48 10° NNE
Okean 2 4.3 21:22:20 10° SSW 21:26:23 49° W 21:30:27 10° N
BREEZE M DEB (TANK) 4.0 21:26:53 10° NNW 21:28:10 13° N 21:29:16 10° NE
Cosmos 1513 Rocket 4.4 21:22:16 10° N 21:28:35 80° E 21:33:01 20° S
GRACE-1 4.0 21:26:35 10° N 21:29:23 56° E 21:29:23 56° E
ALOS 4.3 21:25:48 10° SSW 21:29:37 25° W 21:33:27 10° NW
GRACE-2 4.0 21:27:02 10° N 21:29:49 57° E 21:29:49 57° E
SeaSat 1 2.5 21:29:57 30° SE 21:32:20 66° ENE 21:37:14 10° NNW
MetOp-B 4.4 21:30:22 29° SE 21:32:54 53° ENE 21:38:06 10° N
Cosmos 1302 Rocket 3.9 21:27:53 10° NNW 21:33:08 78° ENE 21:35:46 30° SSE
Terra 3.9 21:35:13 12° ENE 21:35:53 12° ENE 21:37:38 10° NE
CZ-2C R/B 3.5 21:36:43 10° WSW 21:37:43 12° W 21:38:42 10° WNW
Cosmos 2058 Rocket 4.1 21:34:12 10° NNW 21:38:19 42° W 21:41:48 14° SSW
Cosmos 2285 Rocket 4.2 21:32:20 10° NNW 21:38:38 70° WSW 21:43:00 21° S
CZ-4B R/B 3.4 21:35:27 10° NNE 21:40:32 67° ESE 21:43:33 25° S
Cosmos 1603 3.7 21:35:30 10° SSW 21:41:07 86° WNW 21:46:45 10° NNE
Cosmos 1602 Rocket 3.8 21:38:30 16° SSW 21:42:00 71° W 21:46:29 10° N
PSLV R/B 3.1 21:41:56 65° SSW 21:42:15 75° W 21:45:21 10° NNW
UNK 4.2 21:40:26 10° NNE 21:45:53 87° WNW 21:51:19 12° SSW
APEX 3.8 21:41:55 10° NNW 21:46:12 83° WSW 21:48:19 37° SSE
Cosmos 1461 3.1 21:42:47 10° NNW 21:46:58 54° ENE 21:47:38 48° E
Cosmos 1825 Rocket 4.2 21:47:31 37° E 21:47:31 37° E 21:51:34 10° NNE
Cosmos 1238 4.3 21:48:23 66° NE 21:48:23 66° NE 21:51:11 10° N
Timation 1 Rocket 4.3 21:43:54 10° NNW 21:49:57 81° ENE 21:52:25 38° SSE
Cosmos 1812 Rocket 3.4 21:51:51 10° N 21:56:15 81° E 21:57:06 57° SSE
YAOGAN 6 2.5 21:59:25 74° ENE 21:59:25 74° ENE 22:03:06 10° N
Centaur D AC-28 3.3 21:56:41 10° WSW 21:58:43 19° SSW 21:58:43 19° SSW
USA 245 4.3 21:58:00 39° SSE 22:00:23 74° ENE 22:05:57 10° N
Envisat 3.7 22:00:03 25° SSW 22:02:43 48° W 22:07:38 10° NNW
H-2A R/B 4.2 22:02:37 11° SW 22:05:31 20° W 22:08:43 10° NW
Cosmos 1943 3.2 22:05:16 47° SSE 22:06:37 61° ESE 22:12:13 10° NNE
Cosmos 407 Rocket 4.2 22:07:32 37° E 22:07:32 37° E 22:11:46 10° NE
OAO 3 Copernicus 4.2 22:02:43 10° W 22:07:44 70° SSW 22:08:18 63° SSE
ATLAS 3B R/B 3.0 22:03:51 24° S 22:08:31 57° ESE 22:15:56 10° NE
Abrixas rocket 3.0 22:06:53 10° NW 22:09:36 53° NW 22:09:36 53° NW
Cosmos 1634 Rocket 4.1 22:05:10 10° N 22:11:15 59° E 22:12:36 48° SE
USA 81 3.9 22:13:06 10° N 22:18:24 76° E 22:19:05 65° SE
USA 234 3.2 22:17:55 46° SE 22:20:06 84° NE 22:26:42 10° NW
Cosmos 1943 Rocket 4.0 22:19:29 10° NNE 22:22:56 16° ENE 22:23:46 16° ENE
CZ-4C R/B 3.7 22:27:06 65° NNE 22:27:06 65° NNE 22:30:48 10° N
Cosmos 489 Rocket 4.4 22:27:13 58° SSE 22:28:10 66° ESE 22:34:29 10° NNE
ISS0.622:35:41NE22:35:41NE22:25:33WSW
Cosmos 1953 Rocket 3.7 22:32:44 68° N 22:32:44 68° N 22:36:36 10° N
Cosmos 2279 Rocket 4.1 22:30:49 10° N 22:36:55 54° E 22:37:18 53° E
H-2A R/B 2.1 22:40:36 59° NE 22:40:36 59° NE 22:45:09 10° N
Atlas Centaur 2 3.0 22:33:25 10° WSW 22:41:25 65° S 22:43:36 50° ESE
Cosmos 1992 Rocket 4.0 22:40:56 10° NNW 22:46:04 75° W 22:46:04 75° W
COSMOS 2455 4.2 22:43:40 10° WSW 22:49:07 36° WNW 22:54:39 10° N
Cosmos 1953 4.5 22:47:49 10° NNE 22:49:20 19° NNE 22:49:20 19° NNE
Spot 4 4.4 22:53:33 51° NNE 22:53:33 51° NNE 22:57:22 10° N
ARGOS 3.8 22:52:25 44° WSW 22:53:02 46° W 22:58:15 10° NNW
Cosmos 2369 Rocket 2.1 22:49:25 10° NNW 22:54:55 82° NNE 22:54:55 82° NNE
Landsat 7 4.3 22:57:50 57° WNW 22:57:50 57° WNW 23:01:58 10° NNW
Cosmos-2242 4.4 22:56:12 10° N 22:58:51 33° NNE 22:58:51 33° NNE
DMSP B5D2-2 4.2 22:56:36 10° N 23:01:37 75° NW 23:01:37 75° NW
Lacrosse 4 Rocket 3.1 23:07:36 30° N 23:07:36 30° N 23:09:58 10° NNE
COSMOS 2406 4.2 23:14:45 37° NE 23:14:45 37° NE 23:18:20 10° NNE
Terra 2.6 23:14:06 48° NW 23:14:06 48° NW 23:17:46 10° NNW
Cosmos 676 Rocket 4.5 23:15:26 59° NW 23:15:26 59° NW 23:20:24 10° N
Cosmos 2263 4.4 23:11:07 10° NNW 23:16:02 69° NNW 23:16:02 69° NNW
Cosmos 1140 Rocket 4.4 23:29:32 43° NNE 23:29:32 43° NNE 23:33:01 10° NNE
Cosmos 1092 Rocket 4.2 23:37:34 66° NE 23:37:34 66° NE 23:43:01 10° N
CZ-4C R/B 4.2 23:53:07 17° ENE 23:53:07 17° ENE 23:54:41 10° NE
Nadezhda 4 Rocket 4.3 23:50:27 59° WNW 23:50:27 59° WNW 23:56:25 10° N
